Previsão horária em Julia

Hoje, 14 Junho, Segunda-feira

Tempo Temperatura Precipitação Vento Pressão Humidade
00:00 +9°C° 0 mm 3 m/s 758 mmHg 89%
01:00 +8°C° 0 mm 3 m/s 758 mmHg 91%
02:00 +8°C° 0 mm 3 m/s 758 mmHg 92%
03:00 +8°C° 0 mm 3 m/s 758 mmHg 93%
04:00 +8°C° 0 mm 2 m/s 758 mmHg 93%
05:00 +10°C° 0 mm 3 m/s 758 mmHg 88%
06:00 +12°C° 0 mm 3 m/s 758 mmHg 82%
07:00 +13°C° 0 mm 3 m/s 758 mmHg 77%
08:00 +16°C° 0 mm 3 m/s 758 mmHg 71%
09:00 +17°C° 0 mm 2 m/s 758 mmHg 65%
10:00 +19°C° 0 mm 2 m/s 758 mmHg 59%
11:00 +20°C° 0 mm 2 m/s 758 mmHg 57%
12:00 +20°C° 0 mm 2 m/s 758 mmHg 54%
13:00 +21°C° 0 mm 2 m/s 757 mmHg 52%
14:00 +21°C° 0 mm 2 m/s 757 mmHg 52%
15:00 +23°C° 0 mm 2 m/s 757 mmHg 52%
16:00 +23°C° 0 mm 2 m/s 756 mmHg 52%
17:00 +21°C° 0 mm 2 m/s 756 mmHg 58%
18:00 +20°C° 0 mm 2 m/s 756 mmHg 65%
19:00 +19°C° 0 mm 2 m/s 756 mmHg 71%
20:00 +18°C° 0 mm 2 m/s 756 mmHg 73%
21:00 +16°C° 0 mm 2 m/s 756 mmHg 75%
22:00 +15°C° 0 mm 2 m/s 756 mmHg 76%
23:00 +15°C° 0 mm 2 m/s 756 mmHg 77%

Amanhã, 15 Junho, Terça-feira

Tempo Temperatura Precipitação Vento Pressão Humidade
00:00 +13°C° 0 mm 3 m/s 755 mmHg 79%
01:00 +13°C° 0 mm 3 m/s 755 mmHg 80%
02:00 +13°C° 0 mm 3 m/s 755 mmHg 80%
03:00 +12°C° 0 mm 3 m/s 755 mmHg 81%
04:00 +12°C° 0 mm 3 m/s 755 mmHg 81%
05:00 +14°C° 0 mm 3 m/s 755 mmHg 78%
06:00 +16°C° 0 mm 3 m/s 755 mmHg 74%
07:00 +18°C° 0 mm 3 m/s 755 mmHg 70%
08:00 +19°C° 0 mm 3 m/s 755 mmHg 67%
09:00 +21°C° 0 mm 3 m/s 755 mmHg 64%
10:00 +22°C° 0 mm 3 m/s 755 mmHg 61%
11:00 +24°C° 0 mm 3 m/s 755 mmHg 60%
12:00 +24°C° 0 mm 3 m/s 755 mmHg 60%
13:00 +25°C° 0 mm 3 m/s 754 mmHg 59%
14:00 +25°C° 0.4 mm 3 m/s 754 mmHg 64%
15:00 +24°C° 0.4 mm 3 m/s 754 mmHg 69%
16:00 +22°C° 0.4 mm 3 m/s 754 mmHg 74%
17:00 +21°C° 0.8 mm 3 m/s 754 mmHg 78%
18:00 +20°C° 0.8 mm 3 m/s 754 mmHg 83%
19:00 +19°C° 0.8 mm 3 m/s 754 mmHg 88%
20:00 +18°C° 0 mm 3 m/s 755 mmHg 90%
21:00 +17°C° 0 mm 3 m/s 755 mmHg 92%
22:00 +16°C° 0 mm 2 m/s 755 mmHg 95%
23:00 +15°C° 0 mm 2 m/s 755 mmHg 95%

Depois de amanhã, 16 Junho, Quarta-feira

Tempo Temperatura Precipitação Vento Pressão Humidade
00:00 +14°C° 0 mm 2 m/s 755 mmHg 95%
01:00 +14°C° 0 mm 2 m/s 756 mmHg 95%
02:00 +13°C° 0 mm 2 m/s 756 mmHg 93%
03:00 +12°C° 0 mm 2 m/s 756 mmHg 91%
04:00 +10°C° 0 mm 3 m/s 756 mmHg 90%
05:00 +12°C° 0 mm 3 m/s 756 mmHg 84%
06:00 +13°C° 0 mm 3 m/s 756 mmHg 78%
07:00 +14°C° 0 mm 3 m/s 757 mmHg 72%
08:00 +17°C° 0 mm 3 m/s 757 mmHg 67%
09:00 +18°C° 0 mm 3 m/s 757 mmHg 61%
10:00 +20°C° 0 mm 2 m/s 757 mmHg 56%
11:00 +21°C° 0 mm 2 m/s 757 mmHg 55%
12:00 +21°C° 0 mm 2 m/s 757 mmHg 53%
13:00 +23°C° 0 mm 2 m/s 756 mmHg 52%
14:00 +24°C° 0 mm 2 m/s 756 mmHg 52%
15:00 +24°C° 0 mm 2 m/s 756 mmHg 52%
16:00 +24°C° 0 mm 2 m/s 756 mmHg 52%
17:00 +23°C° 0 mm 2 m/s 756 mmHg 58%
18:00 +21°C° 0 mm 2 m/s 756 mmHg 64%
19:00 +20°C° 0 mm 2 m/s 756 mmHg 70%
20:00 +18°C° 0 mm 3 m/s 756 mmHg 71%
21:00 +17°C° 0 mm 3 m/s 756 mmHg 71%
22:00 +16°C° 0 mm 3 m/s 757 mmHg 71%
23:00 +14°C° 0 mm 3 m/s 757 mmHg 72%

17 Junho, Quinta-feira

Tempo Temperatura Precipitação Vento Pressão Humidade
00:00 +14°C° 0 mm 3 m/s 757 mmHg 73%
01:00 +13°C° 0 mm 3 m/s 757 mmHg 73%
02:00 +13°C° 0 mm 3 m/s 757 mmHg 75%
03:00 +13°C° 0 mm 3 m/s 757 mmHg 77%
04:00 +13°C° 0 mm 3 m/s 757 mmHg 79%
05:00 +14°C° 0 mm 3 m/s 757 mmHg 76%
06:00 +17°C° 0 mm 4 m/s 757 mmHg 73%
07:00 +19°C° 0 mm 4 m/s 757 mmHg 69%
08:00 +20°C° 0 mm 4 m/s 757 mmHg 66%
09:00 +22°C° 0 mm 4 m/s 757 mmHg 63%
10:00 +25°C° 0 mm 4 m/s 757 mmHg 60%
11:00 +25°C° 0 mm 4 m/s 757 mmHg 58%
12:00 +26°C° 0 mm 4 m/s 757 mmHg 56%
13:00 +27°C° 0 mm 4 m/s 756 mmHg 54%
14:00 +28°C° 0 mm 4 m/s 756 mmHg 54%
15:00 +28°C° 0 mm 4 m/s 756 mmHg 55%
16:00 +28°C° 0 mm 4 m/s 756 mmHg 55%
17:00 +27°C° 0 mm 4 m/s 756 mmHg 62%
18:00 +25°C° 0 mm 4 m/s 755 mmHg 68%
19:00 +23°C° 0 mm 4 m/s 755 mmHg 74%
20:00 +22°C° 0 mm 4 m/s 755 mmHg 76%
21:00 +21°C° 0 mm 4 m/s 756 mmHg 77%
22:00 +19°C° 0 mm 4 m/s 756 mmHg 79%
23:00 +19°C° 0 mm 4 m/s 756 mmHg 80%

18 Junho, Sexta-feira

Tempo Temperatura Precipitação Vento Pressão Humidade
00:00 +18°C° 0 mm 4 m/s 756 mmHg 81%
01:00 +18°C° 0 mm 4 m/s 756 mmHg 82%
02:00 +18°C° 0 mm 4 m/s 755 mmHg 85%
03:00 +17°C° 0 mm 3 m/s 755 mmHg 87%
04:00 +17°C° 0 mm 3 m/s 755 mmHg 90%
05:00 +19°C° 0 mm 4 m/s 755 mmHg 85%
06:00 +20°C° 0 mm 5 m/s 755 mmHg 80%
07:00 +22°C° 0 mm 5 m/s 755 mmHg 75%
08:00 +25°C° 0 mm 5 m/s 755 mmHg 70%
09:00 +26°C° 0 mm 6 m/s 755 mmHg 65%
10:00 +28°C° 0 mm 6 m/s 755 mmHg 60%
11:00 +29°C° 0 mm 6 m/s 755 mmHg 57%
12:00 +30°C° 0 mm 6 m/s 755 mmHg 54%
13:00 +32°C° 0 mm 6 m/s 755 mmHg 51%
14:00 +32°C° 0 mm 5 m/s 754 mmHg 53%
15:00 +32°C° 0 mm 5 m/s 754 mmHg 54%
16:00 +32°C° 0 mm 5 m/s 754 mmHg 56%
17:00 +30°C° 0 mm 4 m/s 754 mmHg 61%
18:00 +29°C° 0 mm 4 m/s 754 mmHg 67%
19:00 +27°C° 0 mm 3 m/s 754 mmHg 73%
20:00 +26°C° 0 mm 3 m/s 754 mmHg 76%
21:00 +25°C° 0 mm 4 m/s 754 mmHg 79%
22:00 +23°C° 0 mm 4 m/s 755 mmHg 82%
23:00 +22°C° 0 mm 4 m/s 755 mmHg 84%

19 Junho, Sábado

Tempo Temperatura Precipitação Vento Pressão Humidade
00:00 +21°C° 0 mm 4 m/s 755 mmHg 87%
01:00 +21°C° 0 mm 3 m/s 755 mmHg 90%
02:00 +20°C° 0 mm 3 m/s 755 mmHg 90%
03:00 +20°C° 0 mm 3 m/s 755 mmHg 91%
04:00 +20°C° 0 mm 3 m/s 755 mmHg 91%
05:00 +21°C° 0 mm 4 m/s 755 mmHg 86%
06:00 +22°C° 0 mm 4 m/s 755 mmHg 80%
07:00 +25°C° 0 mm 4 m/s 755 mmHg 75%
08:00 +26°C° 0 mm 4 m/s 755 mmHg 70%
09:00 +28°C° 0 mm 4 m/s 755 mmHg 66%
10:00 +29°C° 0 mm 4 m/s 755 mmHg 61%
11:00 +30°C° 0 mm 4 m/s 755 mmHg 58%
12:00 +32°C° 0 mm 4 m/s 755 mmHg 55%
13:00 +33°C° 0 mm 4 m/s 755 mmHg 52%
14:00 +33°C° 0 mm 4 m/s 755 mmHg 52%
15:00 +33°C° 0 mm 4 m/s 754 mmHg 51%
16:00 +33°C° 0 mm 3 m/s 754 mmHg 51%
17:00 +31°C° 0 mm 3 m/s 754 mmHg 57%
18:00 +29°C° 0 mm 3 m/s 754 mmHg 64%
19:00 +28°C° 0 mm 3 m/s 754 mmHg 70%
20:00 +26°C° 0.2 mm 3 m/s 755 mmHg 74%
21:00 +25°C° 0.2 mm 3 m/s 755 mmHg 78%
22:00 +22°C° 0.2 mm 3 m/s 755 mmHg 82%
23:00 +22°C° 0 mm 3 m/s 755 mmHg 83%
Mostrar mais

Necessitamos do seu Consentimento

A Meteoprog e os seus Fornecedores de Serviços podem armazenar e aceder a dados pessoais como cookies, identificadores do dispositivo ou outras tecnologias semelhantes existentes no seu dispositivo e processar estes dados para personalizar conteúdos e anúncios, assim como funcionalidades nas redes sociais e análise de tráfego.

  • Armazenar e/ou aceder a informações no seu dispositivo

    Os cookies, identificadores do dispositivo ou outras informações podem ser armazenados ou acedidos no seu dispositivo, para os fins acima indicados.

  • Anúncios e conteúdos personalizados, medição de anúncios e conteúdos, dados sobre o público-alvo e desenvolvimento de produtos

    Os anúncios e os conteúdos podem ser personalizados com base num perfil. Podem ser adicionados dados adicionais para uma maior personalização dos anúncios e dos conteúdos. A eficácia dos anúncios e dos conteúdos pode ser medida. Podem ser obtidas informações sobre o público que visualizou os anúncios e os conteúdos. Estes dados podem ser usados para desenvolver ou melhorar sistemas, softwares ou a experiência do utilizador.

Ao clicar em "Eu concordo”, permitirá o uso de cookies, identificadores do dispositivo e web beacons mencionados ou outras tecnologias semelhantes. As configurações do navegador do seu dispositivo podem ser alteradas.

Para certos fins, podem ser invocados interesses legítimos ao invés de consentimento. Pode ler mais informação sobre este assunto na nossa Política de Privacidade e Cookies.